status,avgMeasuredTime,avgSpeed,extID,medianMeasuredTime,TIMESTAMP,vehicleCount,_id,REPORT_ID
OK,78,25,755,78,2014-08-01T07:55:00,2,20746479,206316
OK,60,32,755,60,2014-08-01T08:00:00,0,20746810,206316
OK,56,34,755,56,2014-08-01T08:05:00,1,20747259,206316
OK,57,34,755,57,2014-08-01T08:10:00,2,20747632,206316
OK,59,33,755,59,2014-08-01T08:15:00,3,20748081,206316
OK,49,39,755,49,2014-08-01T08:20:00,2,20748530,206316
OK,46,42,755,46,2014-08-01T08:25:00,1,20748979,206316
OK,46,42,755,46,2014-08-01T08:30:00,1,20749428,206316
OK,46,42,755,46,2014-08-01T08:35:00,0,20749877,206316
OK,46,42,755,46,2014-08-01T08:40:00,0,20750326,206316
OK,46,42,755,46,2014-08-01T08:45:00,0,20750775,206316
OK,119,16,755,119,2014-08-01T08:50:00,1,20751224,206316
OK,56,34,755,56,2014-08-01T08:55:00,2,20751673,206316
OK,55,35,755,55,2014-08-01T09:00:00,1,20752122,206316
OK,76,25,755,76,2014-08-01T09:05:00,2,20752571,206316
OK,73,26,755,73,2014-08-01T09:10:00,1,20753020,206316
OK,50,39,755,50,2014-08-01T09:15:00,4,20753469,206316
OK,54,36,755,54,2014-08-01T09:20:00,7,20753918,206316
OK,84,23,755,84,2014-08-01T09:25:00,5,20754367,206316
OK,72,27,755,72,2014-08-01T09:30:00,4,20754816,206316
OK,72,27,755,72,2014-08-01T09:35:00,2,20755265,206316
OK,59,33,755,59,2014-08-01T09:40:00,1,20755714,206316
OK,59,33,755,59,2014-08-01T09:45:00,3,20756163,206316
OK,57,34,755,57,2014-08-01T09:50:00,2,20756612,206316
OK,71,27,755,71,2014-08-01T09:55:00,1,20757061,206316
OK,79,24,755,79,2014-08-01T10:00:00,2,20757510,206316
OK,92,21,755,92,2014-08-01T10:05:00,1,20757959,206316
OK,92,21,755,92,2014-08-01T10:10:00,1,20758408,206316
OK,92,21,755,92,2014-08-01T10:15:00,0,20758857,206316
OK,88,22,755,88,2014-08-01T10:20:00,2,20759306,206316
OK,62,31,755,62,2014-08-01T10:25:00,4,20759755,206316
OK,61,31,755,61,2014-08-01T10:30:00,2,20760204,206316
OK,81,24,755,81,2014-08-01T10:35:00,2,20760653,206316
OK,86,22,755,86,2014-08-01T10:40:00,4,20761102,206316
OK,83,23,755,83,2014-08-01T10:45:00,4,20761551,206316
OK,68,28,755,68,2014-08-01T10:50:00,2,20762000,206316
OK,82,23,755,82,2014-08-01T10:55:00,2,20762449,206316
OK,83,23,755,83,2014-08-01T11:00:00,3,20762898,206316
OK,118,16,755,118,2014-08-01T11:05:00,1,20763347,206316
OK,118,16,755,118,2014-08-01T11:10:00,1,20763796,206316
OK,118,16,755,118,2014-08-01T11:15:00,1,20764245,206316
OK,73,26,755,73,2014-08-01T11:20:00,3,20764693,206316
OK,65,30,755,65,2014-08-01T11:25:00,4,20765142,206316
OK,58,33,755,58,2014-08-01T11:30:00,0,20765591,206316
OK,57,34,755,57,2014-08-01T11:35:00,1,20766040,206316
OK,57,34,755,57,2014-08-01T11:40:00,3,20766489,206316
OK,62,31,755,62,2014-08-01T11:45:00,5,20766938,206316
OK,62,31,755,62,2014-08-01T11:50:00,3,20767387,206316
OK,82,23,755,82,2014-08-01T11:55:00,2,20767836,206316
OK,78,25,755,78,2014-08-01T12:00:00,3,20768285,206316
OK,79,24,755,79,2014-08-01T12:05:00,5,20768734,206316
OK,80,24,755,80,2014-08-01T12:10:00,5,20769183,206316
OK,68,28,755,68,2014-08-01T12:15:00,2,20769632,206316
OK,76,25,755,76,2014-08-01T12:20:00,4,20770081,206316
OK,76,25,755,76,2014-08-01T12:25:00,4,20770530,206316
OK,60,32,755,60,2014-08-01T12:30:00,2,20770979,206316
OK,60,32,755,60,2014-08-01T12:35:00,2,20771428,206316
OK,72,27,755,72,2014-08-01T12:40:00,2,20771877,206316
OK,72,27,755,72,2014-08-01T12:45:00,2,20772326,206316
OK,89,21,755,89,2014-08-01T12:50:00,1,20772775,206316
OK,89,21,755,89,2014-08-01T12:55:00,1,20773224,206316
OK,156,12,755,156,2014-08-01T13:00:00,3,20773673,206316
OK,156,12,755,156,2014-08-01T13:05:00,3,20774122,206316
OK,64,30,755,64,2014-08-01T13:10:00,1,20774571,206316
OK,81,24,755,81,2014-08-01T13:15:00,2,20775020,206316
OK,81,24,755,81,2014-08-01T13:20:00,2,20775469,206316
OK,76,25,755,76,2014-08-01T13:25:00,0,20775918,206316
OK,61,31,755,61,2014-08-01T13:30:00,1,20776367,206316
OK,61,31,755,61,2014-08-01T13:35:00,1,20776816,206316
OK,61,31,755,61,2014-08-01T13:40:00,0,20777265,206316
OK,61,31,755,61,2014-08-01T13:45:00,0,20777714,206316
OK,66,29,755,66,2014-08-01T13:50:00,5,20778163,206316
OK,51,38,755,51,2014-08-01T13:55:00,3,20778612,206316
OK,85,22,755,85,2014-08-01T14:00:00,1,20779061,206316
OK,85,22,755,85,2014-08-01T14:05:00,1,20779510,206316
OK,85,22,755,85,2014-08-01T14:10:00,0,20779959,206316
OK,74,26,755,74,2014-08-01T14:15:00,1,20780408,206316
OK,53,36,755,53,2014-08-01T14:20:00,1,20780857,206316
OK,53,36,755,53,2014-08-01T14:25:00,1,20781306,206316
OK,53,36,755,53,2014-08-01T14:30:00,0,20781755,206316
OK,88,22,755,88,2014-08-01T14:35:00,3,20782204,206316
OK,80,24,755,80,2014-08-01T14:40:00,4,20782653,206316
OK,80,24,755,80,2014-08-01T14:45:00,2,20783102,206316
OK,77,25,755,77,2014-08-01T14:50:00,0,20783551,206316
OK,104,18,755,104,2014-08-01T14:55:00,1,20784000,206316
OK,83,23,755,83,2014-08-01T15:00:00,2,20784449,206316
OK,63,30,755,63,2014-08-01T15:05:00,1,20784898,206316
OK,53,36,755,53,2014-08-01T15:10:00,1,20785347,206316
OK,55,35,755,55,2014-08-01T15:15:00,3,20785796,206316
OK,70,27,755,70,2014-08-01T15:20:00,2,20786245,206316
OK,82,23,755,82,2014-08-01T15:25:00,2,20786694,206316
OK,93,20,755,93,2014-08-01T15:30:00,1,20787143,206316
OK,93,20,755,93,2014-08-01T15:35:00,0,20787592,206316
OK,98,19,755,98,2014-08-01T15:40:00,2,20788041,206316
OK,105,18,755,105,2014-08-01T15:45:00,1,20788490,206316
OK,45,43,755,45,2014-08-01T15:50:00,1,20788939,206316
OK,85,22,755,85,2014-08-01T15:55:00,1,20789388,206316
OK,85,22,755,85,2014-08-01T16:00:00,0,20789837,206316
OK,80,24,755,80,2014-08-01T16:05:00,1,20790286,206316
OK,80,24,755,80,2014-08-01T16:10:00,1,20790735,206316
OK,59,33,755,59,2014-08-01T16:15:00,1,20791184,206316
OK,53,36,755,53,2014-08-01T16:20:00,2,20791633,206316
OK,47,41,755,47,2014-08-01T16:25:00,1,20792082,206316
OK,47,41,755,47,2014-08-01T16:30:00,0,20792531,206316
OK,51,38,755,51,2014-08-01T16:35:00,1,20792980,206316
OK,53,36,755,53,2014-08-01T16:40:00,2,20793429,206316
OK,56,34,755,56,2014-08-01T16:45:00,2,20793878,206316
OK,58,33,755,58,2014-08-01T16:50:00,0,20794327,206316
OK,58,33,755,58,2014-08-01T16:55:00,0,20794776,206316
OK,58,33,755,58,2014-08-01T17:00:00,0,20795225,206316
OK,58,33,755,58,2014-08-01T17:05:00,0,20795674,206316
OK,58,33,755,58,2014-08-01T17:10:00,0,20796123,206316
OK,58,33,755,58,2014-08-01T17:15:00,0,20796572,206316
OK,58,33,755,58,2014-08-01T17:20:00,0,20797021,206316
OK,58,33,755,58,2014-08-01T17:25:00,0,20797470,206316
OK,66,29,755,66,2014-08-01T17:30:00,1,20797919,206316
OK,66,29,755,66,2014-08-01T17:35:00,1,20798368,206316
OK,66,29,755,66,2014-08-01T17:40:00,0,20798817,206316
OK,66,29,755,66,2014-08-01T17:45:00,0,20799266,206316
OK,53,36,755,53,2014-08-01T17:50:00,1,20799715,206316
OK,53,36,755,53,2014-08-01T17:55:00,1,20800164,206316
OK,53,36,755,53,2014-08-01T18:00:00,0,20800613,206316
OK,53,36,755,53,2014-08-01T18:05:00,0,20801062,206316
OK,53,36,755,53,2014-08-01T18:10:00,0,20801511,206316
OK,53,36,755,53,2014-08-01T18:15:00,0,20801960,206316
OK,53,36,755,53,2014-08-01T18:20:00,1,20802409,206316
OK,69,28,755,69,2014-08-01T18:25:00,2,20802858,206316
OK,86,22,755,86,2014-08-01T18:30:00,1,20803307,206316
OK,86,22,755,86,2014-08-01T18:35:00,0,20803756,206316
OK,52,37,755,52,2014-08-01T18:40:00,1,20804205,206316
OK,51,38,755,51,2014-08-01T18:45:00,2,20804654,206316
OK,50,39,755,50,2014-08-01T18:50:00,1,20805103,206316
OK,50,39,755,50,2014-08-01T18:55:00,0,20805552,206316
OK,39,50,755,39,2014-08-01T19:00:00,2,20806001,206316
OK,39,50,755,39,2014-08-01T19:05:00,2,20806450,206316
OK,62,31,755,62,2014-08-01T19:10:00,1,20806899,206316
OK,56,34,755,56,2014-08-01T19:15:00,1,20807348,206316
OK,56,34,755,56,2014-08-01T19:20:00,0,20807797,206316
OK,46,42,755,46,2014-08-01T19:25:00,1,20808246,206316
OK,46,42,755,46,2014-08-01T19:30:00,1,20808695,206316
OK,46,42,755,46,2014-08-01T19:35:00,0,20809144,206316
OK,49,39,755,49,2014-08-01T19:40:00,1,20809593,206316
OK,49,39,755,49,2014-08-01T19:45:00,1,20810042,206316
OK,59,33,755,59,2014-08-01T19:50:00,1,20810491,206316
OK,59,33,755,59,2014-08-01T19:55:00,1,20810940,206316
OK,43,45,755,43,2014-08-01T20:20:00,0,20812177,206316
OK,82,23,755,82,2014-08-01T21:20:00,0,20814726,206316
OK,82,23,755,82,2014-08-01T21:40:00,0,20815688,206316
OK,82,23,755,82,2014-08-01T22:00:00,0,20816669,206316
OK,82,23,755,82,2014-08-01T22:05:00,0,20817118,206316
OK,82,23,755,82,2014-08-01T22:10:00,0,20817440,206316
OK,62,31,755,62,2014-08-01T22:15:00,1,20817869,206316
OK,62,31,755,62,2014-08-01T22:20:00,0,20818159,206316
OK,58,33,755,58,2014-08-01T22:25:00,0,20818475,206316
OK,58,33,755,58,2014-08-01T22:30:00,0,20818809,206316
OK,58,33,755,58,2014-08-01T22:40:00,0,20819293,206316
OK,58,33,755,58,2014-08-01T23:40:00,0,20821994,206316
OK,58,33,755,58,2014-08-01T23:45:00,0,20822217,206316
OK,58,33,755,58,2014-08-01T23:55:00,0,20822810,206316
OK,58,33,755,58,2014-08-02T00:00:00,0,20823108,206316
OK,58,33,755,58,2014-08-02T00:05:00,0,20823557,206316
OK,58,33,755,58,2014-08-02T00:10:00,0,20824006,206316
OK,58,33,755,58,2014-08-02T00:15:00,0,20824455,206316
OK,58,33,755,58,2014-08-02T00:20:00,0,20824904,206316
OK,58,33,755,58,2014-08-02T00:25:00,0,20825353,206316
OK,58,33,755,58,2014-08-02T00:30:00,0,20825802,206316
OK,58,33,755,58,2014-08-02T00:35:00,0,20826251,206316
OK,58,33,755,58,2014-08-02T00:40:00,0,20826700,206316
OK,58,33,755,58,2014-08-02T00:45:00,0,20827149,206316
OK,58,33,755,58,2014-08-02T00:50:00,0,20827598,206316
OK,58,33,755,58,2014-08-02T00:55:00,0,20828047,206316
OK,58,33,755,58,2014-08-02T01:00:00,0,20828496,206316
OK,58,33,755,58,2014-08-02T01:05:00,0,20828945,206316
OK,58,33,755,58,2014-08-02T01:10:00,0,20829394,206316
OK,58,33,755,58,2014-08-02T01:15:00,0,20829843,206316
OK,58,33,755,58,2014-08-02T01:20:00,0,20830292,206316
OK,58,33,755,58,2014-08-02T01:25:00,0,20830741,206316
OK,58,33,755,58,2014-08-02T01:30:00,0,20831190,206316
OK,58,33,755,58,2014-08-02T01:35:00,0,20831639,206316
OK,58,33,755,58,2014-08-02T01:40:00,0,20832088,206316
OK,58,33,755,58,2014-08-02T01:45:00,0,20832537,206316
OK,58,33,755,58,2014-08-02T01:50:00,0,20832986,206316
OK,58,33,755,58,2014-08-02T01:55:00,0,20833435,206316
OK,58,33,755,58,2014-08-02T02:00:00,0,20833884,206316
OK,58,33,755,58,2014-08-02T02:05:00,0,20834333,206316
OK,58,33,755,58,2014-08-02T02:10:00,0,20834782,206316
OK,58,33,755,58,2014-08-02T02:15:00,0,20835231,206316
OK,58,33,755,58,2014-08-02T02:20:00,0,20835680,206316
OK,58,33,755,58,2014-08-02T02:25:00,0,20836129,206316
OK,58,33,755,58,2014-08-02T02:30:00,0,20836578,206316
OK,58,33,755,58,2014-08-02T02:35:00,0,20837027,206316
OK,58,33,755,58,2014-08-02T02:40:00,0,20837476,206316
OK,58,33,755,58,2014-08-02T02:45:00,0,20837925,206316
OK,58,33,755,58,2014-08-02T02:50:00,0,20838374,206316
OK,58,33,755,58,2014-08-02T02:55:00,0,20838823,206316
OK,58,33,755,58,2014-08-02T03:00:00,0,20839272,206316
OK,58,33,755,58,2014-08-02T03:05:00,0,20839721,206316
OK,58,33,755,58,2014-08-02T03:10:00,0,20840170,206316
OK,58,33,755,58,2014-08-02T03:15:00,0,20840619,206316
OK,58,33,755,58,2014-08-02T03:20:00,0,20841068,206316
OK,58,33,755,58,2014-08-02T03:25:00,0,20841517,206316
OK,58,33,755,58,2014-08-02T03:30:00,0,20841966,206316
OK,58,33,755,58,2014-08-02T03:35:00,0,20842415,206316
OK,58,33,755,58,2014-08-02T03:40:00,0,20842864,206316
OK,58,33,755,58,2014-08-02T03:45:00,0,20843313,206316
OK,58,33,755,58,2014-08-02T03:50:00,0,20843762,206316
OK,58,33,755,58,2014-08-02T03:55:00,0,20844211,206316
OK,58,33,755,58,2014-08-02T04:05:00,0,20844791,206316
OK,58,33,755,58,2014-08-02T04:10:00,0,20845121,206316
OK,58,33,755,58,2014-08-02T04:15:00,0,20845301,206316
OK,58,33,755,58,2014-08-02T04:20:00,0,20845657,206316
OK,58,33,755,58,2014-08-02T04:30:00,0,20846213,206316
OK,58,33,755,58,2014-08-02T04:35:00,0,20846580,206316
OK,58,33,755,58,2014-08-02T04:40:00,0,20846963,206316
OK,59,33,755,59,2014-08-02T04:45:00,1,20847222,206316
OK,59,33,755,59,2014-08-02T04:50:00,0,20847588,206316
OK,57,34,755,57,2014-08-02T05:00:00,1,20848305,206316
OK,57,34,755,57,2014-08-02T05:10:00,0,20848822,206316
OK,35,55,755,35,2014-08-02T05:15:00,1,20849015,206316
OK,65,30,755,65,2014-08-02T05:20:00,2,20849359,206316
OK,55,35,755,55,2014-08-02T05:40:00,0,20850449,206316
OK,55,35,755,55,2014-08-02T05:45:00,0,20850750,206316
OK,59,33,755,59,2014-08-02T05:50:00,1,20851108,206316
OK,51,38,755,51,2014-08-02T05:55:00,2,20851362,206316
OK,57,34,755,57,2014-08-02T06:00:00,2,20851665,206316
OK,54,36,755,54,2014-08-02T06:05:00,1,20852114,206316
OK,66,29,755,66,2014-08-02T06:10:00,2,20852563,206316
OK,69,28,755,69,2014-08-02T06:15:00,2,20853012,206316
OK,54,36,755,54,2014-08-02T06:20:00,2,20853461,206316
OK,66,29,755,66,2014-08-02T06:25:00,1,20853910,206316
OK,66,29,755,66,2014-08-02T06:30:00,2,20854359,206316
OK,58,33,755,58,2014-08-02T06:35:00,2,20854808,206316
OK,85,22,755,85,2014-08-02T06:40:00,3,20855257,206316
OK,86,22,755,86,2014-08-02T06:45:00,3,20855706,206316
OK,45,43,755,45,2014-08-02T06:50:00,1,20856155,206316
OK,45,43,755,45,2014-08-02T06:55:00,1,20856604,206316
OK,45,43,755,45,2014-08-02T07:00:00,0,20857053,206316
OK,45,43,755,45,2014-08-02T07:05:00,0,20857502,206316
OK,45,43,755,45,2014-08-02T07:10:00,0,20857951,206316
OK,45,43,755,45,2014-08-02T07:15:00,0,20858400,206316
OK,45,43,755,45,2014-08-02T07:20:00,0,20858849,206316
OK,45,43,755,45,2014-08-02T07:25:00,0,20859298,206316
OK,39,50,755,39,2014-08-02T07:30:00,1,20859747,206316
OK,81,24,755,81,2014-08-02T07:35:00,1,20860196,206316
OK,68,28,755,68,2014-08-02T07:40:00,2,20860645,206316
OK,74,26,755,74,2014-08-02T07:45:00,1,20861094,206316
OK,59,33,755,59,2014-08-02T07:50:00,2,20861543,206316
OK,75,26,755,75,2014-08-02T07:55:00,2,20861992,206316
OK,79,24,755,79,2014-08-02T08:00:00,1,20862441,206316
OK,79,24,755,79,2014-08-02T08:05:00,1,20862890,206316
OK,74,26,755,74,2014-08-02T08:10:00,1,20863339,206316
OK,74,26,755,74,2014-08-02T08:15:00,1,20863788,206316
OK,84,23,755,84,2014-08-02T08:20:00,1,20864237,206316
OK,76,25,755,76,2014-08-02T08:25:00,2,20864686,206316
OK,74,26,755,74,2014-08-02T08:30:00,2,20865135,206316
OK,79,24,755,79,2014-08-02T08:35:00,3,20865584,206316
OK,87,22,755,87,2014-08-02T08:40:00,2,20866033,206316
OK,65,30,755,65,2014-08-02T08:45:00,1,20866482,206316
OK,69,28,755,69,2014-08-02T08:50:00,1,20866931,206316
OK,96,20,755,96,2014-08-02T08:55:00,1,20867380,206316
OK,96,20,755,96,2014-08-02T09:00:00,1,20867829,206316
OK,56,34,755,56,2014-08-02T09:05:00,1,20868278,206316
OK,83,23,755,83,2014-08-02T09:10:00,2,20868727,206316
OK,83,23,755,83,2014-08-02T09:15:00,3,20869176,206316
OK,92,21,755,92,2014-08-02T09:20:00,2,20869625,206316
OK,109,17,755,109,2014-08-02T09:25:00,2,20870074,206316
OK,81,24,755,81,2014-08-02T09:30:00,2,20870523,206316
OK,66,29,755,66,2014-08-02T09:35:00,4,20870972,206316
OK,80,24,755,80,2014-08-02T09:40:00,3,20871421,206316
OK,105,18,755,105,2014-08-02T09:45:00,1,20871870,206316
OK,111,17,755,111,2014-08-02T09:50:00,2,20872319,206316
OK,100,19,755,100,2014-08-02T09:55:00,3,20872768,206316
OK,91,21,755,91,2014-08-02T10:00:00,1,20873217,206316
OK,91,21,755,91,2014-08-02T10:05:00,1,20873666,206316
OK,115,16,755,115,2014-08-02T10:10:00,1,20874115,206316
OK,115,16,755,115,2014-08-02T10:15:00,1,20874564,206316
OK,115,16,755,115,2014-08-02T10:20:00,0,20875013,206316
OK,66,29,755,66,2014-08-02T10:25:00,3,20875462,206316
OK,66,29,755,66,2014-08-02T10:30:00,4,20875911,206316
OK,67,29,755,67,2014-08-02T10:35:00,1,20876360,206316
OK,67,29,755,67,2014-08-02T10:40:00,0,20876809,206316
OK,67,29,755,67,2014-08-02T10:45:00,0,20877258,206316
OK,67,29,755,67,2014-08-02T10:50:00,0,20877707,206316
OK,67,29,755,67,2014-08-02T10:55:00,0,20878156,206316
OK,45,43,755,45,2014-08-02T11:00:00,1,20878605,206316
OK,45,43,755,45,2014-08-02T11:05:00,1,20879054,206316
OK,63,30,755,63,2014-08-02T11:10:00,2,20879503,206316
OK,54,36,755,54,2014-08-02T11:15:00,3,20879952,206316
OK,78,25,755,78,2014-08-02T11:20:00,3,20880401,206316
OK,58,33,755,58,2014-08-02T11:25:00,5,20880850,206316
OK,71,27,755,71,2014-08-02T11:30:00,5,20881299,206316
OK,82,23,755,82,2014-08-02T11:35:00,5,20881748,206316
OK,84,23,755,84,2014-08-02T11:40:00,3,20882197,206316
OK,61,31,755,61,2014-08-02T11:45:00,2,20882646,206316
OK,39,50,755,39,2014-08-02T11:50:00,1,20883095,206316
OK,39,50,755,39,2014-08-02T11:55:00,0,20883544,206316
OK,39,50,755,39,2014-08-02T12:00:00,0,20883993,206316
OK,32,60,755,32,2014-08-02T12:05:00,1,20884442,206316
OK,80,24,755,80,2014-08-02T12:10:00,5,20884891,206316
OK,80,24,755,80,2014-08-02T12:15:00,3,20885340,206316
OK,80,24,755,80,2014-08-02T12:20:00,0,20885789,206316
OK,70,27,755,70,2014-08-02T12:25:00,4,20886238,206316
OK,56,34,755,56,2014-08-02T12:30:00,2,20886687,206316
OK,70,27,755,70,2014-08-02T12:35:00,2,20887136,206316
OK,86,22,755,86,2014-08-02T12:40:00,1,20887585,206316
OK,69,28,755,69,2014-08-02T12:45:00,2,20888034,206316
OK,60,32,755,60,2014-08-02T12:50:00,3,20888483,206316
OK,60,32,755,60,2014-08-02T12:55:00,1,20888932,206316
OK,73,26,755,73,2014-08-02T13:00:00,1,20889381,206316
OK,80,24,755,80,2014-08-02T13:05:00,3,20889830,206316
OK,65,30,755,65,2014-08-02T13:10:00,2,20890279,206316
OK,39,50,755,39,2014-08-02T13:15:00,0,20890728,206316
OK,39,50,755,39,2014-08-02T13:20:00,0,20891177,206316
OK,39,50,755,39,2014-08-02T13:25:00,0,20891626,206316
OK,75,26,755,75,2014-08-02T13:30:00,2,20892075,206316
OK,85,22,755,85,2014-08-02T13:35:00,4,20892524,206316
OK,84,23,755,84,2014-08-02T13:40:00,1,20892973,206316
OK,84,23,755,84,2014-08-02T13:45:00,0,20893422,206316
OK,84,23,755,84,2014-08-02T13:50:00,0,20893871,206316
OK,78,25,755,78,2014-08-02T13:55:00,1,20894320,206316
OK,78,25,755,78,2014-08-02T14:00:00,1,20894769,206316
OK,78,25,755,78,2014-08-02T14:05:00,0,20895218,206316
OK,69,28,755,69,2014-08-02T14:10:00,1,20895667,206316
OK,69,28,755,69,2014-08-02T14:15:00,1,20896116,206316
OK,76,25,755,76,2014-08-02T14:20:00,2,20896565,206316
OK,81,24,755,81,2014-08-02T14:25:00,2,20897014,206316
OK,80,24,755,80,2014-08-02T14:30:00,1,20897463,206316
OK,99,19,755,99,2014-08-02T14:35:00,1,20897912,206316
OK,56,34,755,56,2014-08-02T14:40:00,1,20898361,206316
OK,70,27,755,70,2014-08-02T14:45:00,1,20898810,206316
OK,64,30,755,64,2014-08-02T14:50:00,1,20899259,206316
OK,64,30,755,64,2014-08-02T14:55:00,0,20899708,206316
OK,97,20,755,97,2014-08-02T15:00:00,1,20900157,206316
OK,73,26,755,73,2014-08-02T15:05:00,2,20900606,206316
OK,51,38,755,51,2014-08-02T15:10:00,2,20901055,206316
OK,54,36,755,54,2014-08-02T15:15:00,1,20901504,206316
OK,108,18,755,108,2014-08-02T15:20:00,1,20901953,206316
OK,108,18,755,108,2014-08-02T15:25:00,1,20902402,206316
OK,65,30,755,65,2014-08-02T15:30:00,2,20902851,206316
OK,61,31,755,61,2014-08-02T15:35:00,2,20903300,206316
OK,61,31,755,61,2014-08-02T15:40:00,2,20903749,206316
OK,84,23,755,84,2014-08-02T15:45:00,4,20904198,206316
OK,84,23,755,84,2014-08-02T15:50:00,4,20904647,206316
OK,98,19,755,98,2014-08-02T15:55:00,0,20905096,206316
OK,43,45,755,43,2014-08-02T16:00:00,1,20905545,206316
OK,79,24,755,79,2014-08-02T16:05:00,3,20905994,206316
OK,62,31,755,62,2014-08-02T16:10:00,4,20906443,206316
OK,43,45,755,43,2014-08-02T16:15:00,2,20906892,206316
OK,89,21,755,89,2014-08-02T16:20:00,1,20907341,206316
OK,85,22,755,85,2014-08-02T16:25:00,2,20907790,206316
OK,85,22,755,85,2014-08-02T16:30:00,0,20908239,206316
OK,109,17,755,109,2014-08-02T16:35:00,1,20908688,206316
OK,109,17,755,109,2014-08-02T16:40:00,0,20909137,206316
OK,44,44,755,44,2014-08-02T16:45:00,1,20909586,206316
OK,44,44,755,44,2014-08-02T16:50:00,1,20910035,206316
OK,44,44,755,44,2014-08-02T16:55:00,0,20910484,206316
OK,44,44,755,44,2014-08-02T17:00:00,0,20910933,206316
OK,89,21,755,89,2014-08-02T17:05:00,1,20911382,206316
OK,72,27,755,72,2014-08-02T17:10:00,2,20911831,206316
OK,62,31,755,62,2014-08-02T17:15:00,2,20912280,206316
OK,65,30,755,65,2014-08-02T17:20:00,1,20912729,206316
OK,65,30,755,65,2014-08-02T17:25:00,0,20913178,206316
OK,64,30,755,64,2014-08-02T17:30:00,1,20913627,206316
OK,64,30,755,64,2014-08-02T17:35:00,1,20914076,206316
OK,64,30,755,64,2014-08-02T17:40:00,0,20914525,206316
OK,64,30,755,64,2014-08-02T17:45:00,0,20914974,206316
OK,64,30,755,64,2014-08-02T17:50:00,0,20915423,206316
OK,64,30,755,64,2014-08-02T17:55:00,0,20915872,206316
OK,81,24,755,81,2014-08-02T18:00:00,1,20916321,206316
OK,81,24,755,81,2014-08-02T18:05:00,1,20916770,206316
OK,72,27,755,72,2014-08-02T18:10:00,4,20917219,206316
OK,72,27,755,72,2014-08-02T18:15:00,4,20917668,206316
OK,72,27,755,72,2014-08-02T18:20:00,0,20918117,206316
OK,153,12,755,153,2014-08-02T18:25:00,1,20918566,206316
OK,153,12,755,153,2014-08-02T18:30:00,1,20919015,206316
OK,85,22,755,85,2014-08-02T18:35:00,1,20919464,206316
OK,85,22,755,85,2014-08-02T18:40:00,0,20919913,206316
OK,51,38,755,51,2014-08-02T18:45:00,3,20920362,206316
OK,51,38,755,51,2014-08-02T18:50:00,3,20920811,206316
OK,50,39,755,50,2014-08-02T18:55:00,0,20921260,206316
OK,50,39,755,50,2014-08-02T19:00:00,0,20921709,206316
OK,31,62,755,31,2014-08-02T19:05:00,0,20922158,206316
OK,31,62,755,31,2014-08-02T19:10:00,0,20922607,206316
OK,45,43,755,45,2014-08-02T19:15:00,1,20923056,206316
OK,45,43,755,45,2014-08-02T19:20:00,1,20923505,206316
OK,45,43,755,45,2014-08-02T19:25:00,0,20923954,206316
OK,45,43,755,45,2014-08-02T19:30:00,0,20924403,206316
OK,45,43,755,45,2014-08-02T19:35:00,0,20924852,206316
OK,45,43,755,45,2014-08-02T19:40:00,0,20925301,206316
OK,46,42,755,46,2014-08-02T19:45:00,2,20925750,206316
OK,49,39,755,49,2014-08-02T19:50:00,1,20926199,206316
OK,40,48,755,40,2014-08-02T19:55:00,0,20926648,206316
OK,54,36,755,54,2014-08-02T20:00:00,2,20927097,206316
OK,54,36,755,54,2014-08-02T20:05:00,2,20927546,206316
OK,63,30,755,63,2014-08-02T20:10:00,1,20927995,206316
OK,57,34,755,57,2014-08-02T20:15:00,0,20928444,206316
OK,57,34,755,57,2014-08-02T20:20:00,0,20928893,206316
OK,52,37,755,52,2014-08-02T20:25:00,1,20929342,206316
OK,52,37,755,52,2014-08-02T20:30:00,0,20929791,206316
OK,52,37,755,52,2014-08-02T20:35:00,0,20930240,206316
OK,52,37,755,52,2014-08-02T20:40:00,0,20930689,206316
OK,52,37,755,52,2014-08-02T20:45:00,0,20931138,206316
OK,52,37,755,52,2014-08-02T20:50:00,0,20931587,206316
OK,52,37,755,52,2014-08-02T20:55:00,0,20932036,206316
OK,52,37,755,52,2014-08-02T21:00:00,0,20932485,206316
OK,52,37,755,52,2014-08-02T21:05:00,0,20932934,206316
OK,52,37,755,52,2014-08-02T21:10:00,0,20933383,206316
OK,48,40,755,48,2014-08-02T21:15:00,1,20933832,206316
OK,48,40,755,48,2014-08-02T21:20:00,0,20934281,206316
OK,48,40,755,48,2014-08-02T21:25:00,0,20934730,206316
OK,48,40,755,48,2014-08-02T21:30:00,0,20935179,206316
OK,48,40,755,48,2014-08-02T21:35:00,0,20935628,206316
OK,48,40,755,48,2014-08-02T21:40:00,0,20936077,206316
OK,57,34,755,57,2014-08-02T21:45:00,1,20936526,206316
OK,57,34,755,57,2014-08-02T21:50:00,0,20936975,206316
OK,57,34,755,57,2014-08-02T21:55:00,0,20937424,206316
OK,57,34,755,57,2014-08-02T22:00:00,0,20937873,206316
OK,57,34,755,57,2014-08-02T22:05:00,0,20938322,206316
OK,55,35,755,55,2014-08-02T22:10:00,1,20938771,206316
OK,55,35,755,55,2014-08-02T22:15:00,1,20939220,206316
OK,55,35,755,55,2014-08-02T22:20:00,0,20939669,206316
OK,55,35,755,55,2014-08-02T22:25:00,0,20940118,206316
OK,55,35,755,55,2014-08-02T22:30:00,0,20940567,206316
OK,55,35,755,55,2014-08-02T22:35:00,0,20941016,206316
OK,55,35,755,55,2014-08-02T22:40:00,0,20941465,206316
OK,55,35,755,55,2014-08-02T22:45:00,0,20941914,206316
OK,55,35,755,55,2014-08-02T22:50:00,0,20942363,206316
OK,55,35,755,55,2014-08-02T22:55:00,0,20942812,206316
OK,55,35,755,55,2014-08-02T23:00:00,0,20943261,206316
OK,55,35,755,55,2014-08-02T23:10:00,0,20943710,206316
OK,55,35,755,55,2014-08-02T23:15:00,0,20944159,206316
OK,55,35,755,55,2014-08-02T23:20:00,0,20944608,206316
OK,55,35,755,55,2014-08-02T23:25:00,0,20945057,206316